SCP
0 0 0 0 0 0 0 0 0 0 0 0 0 0 0 0 0 0 0 0 0 0 0 0 0 0 0 0 0 0 0 0 0 0 0 0 0 0 0 0 0 0 0 0
0 0 0 0 0 0 0 0 0 0 0 0 0 0 0 0 0 0 0 0 0 0 0 0 0 0 0 0 0 0 0 0 0 0 0 0 0 0 0 0 0 0 0 0
0 0 0 0 0 0 0 0 0 0 0 0 0 0 0 0 0 0 0 0 0 0 0 0 0 0 0 0 0 0 0 0 0 0 0 0 0 0 0 0 0 0 0 0
0 0 0 0 0 0 0 0 0 0 0 0 0 0 0 0 0 0 0 0 0 0 0 0 0 0 0 0 0 0 0 0 0 0 0 0 0 0 0 0 0 0 0 0
0 0 0 0 0 0 0 0 0 0 0 0 0 0 0 0 0 0 0 0 0 0 0 0 0 0 0 0 0 0 0 0 0 0 0 0 0 0 0 0 0 0 0 0
0 0 0 0 0 0 0 0 0 0 0 0 0 0 0 0 0 0 0 0 0 0 0 0 0 0 0 0 0 0 0 0 0 0 0 0 0 0 0 0 0 0 0 0
0 0 0 0 0 0 0 0 0 0 0 0 0 0 0 0 0 0 0 0 0 0 0 0 0 0 0 0 0 0 0 0 0 0 0 0 0 0 0 0 0 0 0 0
0 0 0 0 0 0 0 0 0 0 0 0 0 0 0 0 0 0 0 0 0 0 0 0 0 0 0 0 0 0 0 0 0 0 0 0 0 0 0 0 0 0 0 0
0 0 0 0 0 0 0 0 0 0 0 0 0 0 0 0 0 0 0 0 0 0 0 0 0 0 0 0 0 0 0 0 0 0 0 0 0 0 0 0 0 0 0 0
0 0 0 0 0 0 0 0 0 0 0 0 0 0 0 0 0 0 0 0 0 0 0 0 0 0 0 0 0 0 0 0 0 0 0 0 0 0 0 0 0 0 0 0
0 0 0 0 0 0 0 0 0 0 0 0 0 0 0 0 0 0 0 0 0 0 0 0 0 0 0 0 0 0 0 0 0 0 0 0 0 0 0 0 0 0 0 0
0 0 0 0 0 0 0 0 0 0 0 0 0 0 0 0 0 0 0 0 0 0 0 0 0 0 0 0 0 0 0 0 0 0 0 0 0 0 0 0 0 0 0 0
0 0 0 0 0 0 0 0 0 0 0 0 0 0 0 0 0 0 0 0 0 0 0 0 0 0 0 0 0 0 0 0 0 0 0 0 0 0 0 0 0 0 0 0
0 0 0 0 0 0 0 0 0 0 0 0 0 0 0 0 0 0 0 0 0 0 0 0 0 0 0 0 0 0 0 0 0 0 0 0 0 0 0 0 0 0 0 0
0 0 0 0 0 0 0 0 0 0 0 0 0 0 0 0 0 0 0 0 0 0 0 0 0 0 0 0 0 0 0 0 0 0 0 0 0 0 0 0 0 0 0 0
0 0 0 0 0 0 0 0 0 0 0 0 0 0 0 0 0 0 0 0 0 0 0 0 0 0 0 0 0 0 0 0 0 0 0 0 0 0 0 0 0 0 0 0
0 0 0 0 0 0 0 0 0 0 0 0 0 0 0 0 0 0 0 0 0 0 0 0 0 0 0 0 0 0 0 0 0 0 0 0 0 0 0 0 0 0 0 0
0 0 0 0 0 0 0 0 0 0 0 0 0 0 0 0 0 0 0 0 0 0 0 0 0 0 0 0 0 0 0 0 0 0 0 0 0 0 0 0 0 0 0 0
0 0 0 0 0 0 0 0 0 0 0 0 0 0 0 0 0 0 0 0 0 0 0 0 0 0 0 0 0 0 0 0 0 0 0 0 0 0 0 0 0 0 0 0
0 0 0 0 0 0 0 0 0 0 0 0 0 0 0 0 0 0 0 0 0 0 0 0 0 0 0 0 0 0 0 0 0 0 0 0 0 0 0 0 0 0 0 0
0 0 0 0 0 0 0 0 0 0 0 0 0 0 0 0 0 0 0 0 0 0 0 0 0 0 0 0 0 0 0 0 0 0 0 0 0 0 0 0 0 0 0 0
0 0 0 0 0 0 0 0 0 0 0 0 0 0 0 0 0 0 0 0 0 0 0 0 0 0 0 0 0 0 0 0 0 0 0 0 0 0 0 0 0 0 0 0
0 0 0 0 0 0 0 0 0 0 0 0 0 0 0 0 0 0 0 0 0 0 0 0 0 0 0 0 0 0 0 0 0 0 0 0 0 0 0 0 0 0 0 0
0 0 0 0 0 0 0 0 0 0 0 0 0 0 0 0 0 0 0 0 0 0 0 0 0 0 0 0 0 0 0 0 0 0 0 0 0 0 0 0 0 0 0 0
0 0 0 0 0 0 0 0 0 0 0 0 0 0 0 0 0 0 0 0 0 0 0 0 0 0 0 0 0 0 0 0 0 0 0 0 0 0 0 0 0 0 0 0
0 0 0 0 0 0 0 0 0 0 0 0 0 0 0 0 0 0 0 0 0 0 0 0 0 0 0 0 0 0 0 0 0 0 0 0 0 0 0 0 0 0 0 0
Wind_Speed_500mb
7 18 28 31 22 7 20 14 14 5 3 6 13 21 21 19 19 24 22 24 20 26 25 27 34 38 45 53 57 57 59 58 59 60 59 60 60 57 55 50 44 40 38 42
13 27 17 21 14 15 19 19 10 6 4 5 3 22 22 17 13 18 20 20 20 23 24 29 35 42 47 48 55 59 59 59 60 60 60 61 60 59 56 55 52 49 46 45
29 5 28 16 16 20 5 18 12 8 9 4 7 14 9 3 1 5 8 14 12 13 11 14 22 31 39 51 61 57 57 58 59 57 57 58 61 57 54 52 49 47 47 47
8 8 24 25 15 15 11 7 15 22 14 7 5 7 7 4 5 7 5 5 6 6 4 4 7 14 18 27 47 56 52 51 54 55 57 55 54 52 49 48 43 42 38 37
13 23 22 17 15 13 7 12 14 8 9 5 5 8 6 3 10 12 9 7 9 12 15 16 15 13 10 8 16 32 38 43 44 45 48 49 50 47 45 44 43 43 43 42
7 4 4 6 11 2 27 20 14 7 3 5 4 7 8 8 7 10 8 8 11 15 21 22 23 21 20 18 14 15 22 30 32 31 32 37 38 39 41 41 41 43 43 43
5 5 3 9 22 10 7 29 7 6 8 8 4 6 13 6 6 3 3 10 18 24 27 30 32 31 30 28 26 23 19 18 17 17 19 23 26 26 26 28 30 32 33 35
19 11 19 11 9 20 29 15 12 13 10 7 2 13 7 2 5 8 11 19 27 35 40 44 47 47 47 47 44 41 38 35 30 25 19 13 8 5 5 9 12 16 19 22
19 8 4 2 4 9 14 12 7 14 2 4 8 9 16 4 9 15 24 29 31 37 43 48 49 50 49 47 45 43 40 38 34 29 24 18 13 8 4 6 10 14 19 23
15 11 4 3 3 8 8 21 7 1 11 9 9 10 10 15 22 22 29 35 31 37 42 45 45 42 41 37 34 29 27 26 24 20 17 14 11 9 9 11 14 17 21 25
12 7 4 3 12 21 8 10 4 7 5 9 9 10 6 25 31 34 38 36 36 36 42 43 41 37 33 29 26 24 23 21 18 15 15 13 11 12 14 16 18 21 24 26
4 11 10 15 2 4 3 9 17 11 12 1 2 5 2 16 38 46 40 33 34 39 42 41 38 34 31 26 23 19 19 16 16 15 13 11 12 13 15 18 21 24 27 31
16 7 10 4 5 2 12 9 10 6 5 14 11 8 4 19 36 37 39 33 40 41 40 38 35 31 27 23 19 16 16 15 14 13 12 13 14 17 21 24 28 33 38 44
26 4 13 24 25 16 19 19 18 22 10 12 17 11 18 24 32 40 41 41 38 40 41 38 34 28 23 20 19 17 15 14 13 14 16 18 20 24 30 35 41 47 51 55
13 20 12 6 4 15 15 27 31 33 42 24 35 28 38 42 43 55 46 42 45 45 41 36 31 27 23 21 18 15 12 11 12 15 17 21 26 31 35 40 43 46 51 54
5 10 17 7 7 5 8 25 39 45 41 30 14 26 16 55 40 40 47 53 49 47 45 38 32 28 25 20 14 9 6 9 15 19 23 27 32 37 42 47 52 55 57 59
17 13 9 14 9 10 8 40 40 34 34 39 31 29 17 31 45 56 54 55 52 50 46 38 33 28 22 15 9 5 6 11 15 22 28 34 39 45 51 56 59 61 64 67
20 14 3 8 7 14 15 4 36 42 31 36 25 19 41 55 80 54 50 59 56 53 46 40 33 26 18 11 5 5 11 18 24 30 37 43 48 53 57 58 60 64 68 71
8 17 9 12 19 9 11 12 19 26 35 32 42 20 26 32 38 31 51 54 56 51 45 38 30 22 17 10 1 9 18 26 33 38 43 49 55 58 60 63 65 67 73 76
2 12 14 8 16 26 19 13 27 14 28 31 41 33 36 48 23 16 57 52 50 46 41 35 26 18 8 4 11 19 28 35 40 45 48 51 55 59 64 68 72 75 78 83
12 5 24 15 9 13 9 12 29 22 15 35 65 60 61 26 18 43 59 54 49 45 39 30 20 11 9 14 20 28 34 40 45 47 50 53 56 63 67 74 76 81 85 88
24 22 14 7 16 31 25 17 21 5 13 28 40 46 47 34 41 69 65 58 50 42 34 25 17 13 17 22 25 29 36 43 47 51 54 58 62 66 70 74 77 77 79 83
9 8 14 16 9 3 37 4 25 22 34 31 48 55 61 50 62 69 64 53 42 32 24 17 13 16 21 24 30 34 39 46 51 55 58 60 64 66 69 75 80 85 87 87
4 5 5 6 5 0 26 13 22 27 33 39 43 55 57 61 67 64 56 46 36 27 19 17 18 18 22 27 29 37 44 48 52 57 58 62 66 68 69 72 76 82 86 88
1 17 12 4 3 4 20 28 33 38 40 43 48 55 57 61 59 53 45 36 28 21 19 20 22 24 25 30 34 38 45 50 56 62 67 71 73 76 78 78 80 83 84 84
16 12 10 8 36 15 31 52 43 43 47 46 51 54 49 49 51 45 37 29 22 21 21 22 23 25 30 34 35 40 48 56 64 72 76 79 83 85 87 89 91 86 87 86
Wind_Direction_500mb
151 185 190 179 193 149 158 139 159 131 71 224 233 267 262 264 271 255 256 265 262 261 259 252 244 239 235 235 234 232 232 232 234 237 238 242 246 250 253 256 260 259 257 256
159 204 175 117 116 126 145 150 145 102 69 232 275 267 264 266 250 271 277 270 275 271 267 252 244 238 235 234 235 234 234 234 236 240 242 245 250 254 258 262 263 264 263 260
181 154 147 141 142 134 135 172 167 147 139 81 296 268 240 106 208 298 292 271 259 256 258 250 237 235 237 236 232 231 233 235 237 238 242 244 248 254 257 259 263 265 269 267
151 139 162 149 167 173 172 158 134 135 157 210 348 259 266 146 134 106 78 74 84 95 76 114 171 208 233 239 230 228 231 233 236 237 240 246 251 255 262 267 272 278 281 277
157 166 156 172 178 177 147 128 119 124 110 168 189 262 239 158 167 140 110 92 98 105 106 107 109 117 125 162 206 223 228 229 233 235 237 242 250 255 260 264 272 277 280 280
94 102 159 133 74 56 142 109 73 72 87 238 154 246 234 185 171 153 121 108 110 117 112 106 101 100 103 106 128 172 200 212 218 224 227 234 242 249 254 260 265 269 272 274
115 120 95 139 96 136 187 155 135 179 190 233 27 211 267 157 125 114 138 114 121 123 116 110 108 105 102 101 102 109 123 153 175 197 211 219 226 233 241 249 258 266 272 276
161 193 182 169 173 174 182 194 167 179 189 164 101 220 243 110 344 182 135 133 126 121 119 115 110 105 101 98 96 96 98 100 103 107 111 117 133 168 236 261 272 278 279 282
169 156 62 52 142 174 176 200 98 105 59 170 204 250 261 119 139 151 142 138 132 125 122 117 114 111 106 103 99 96 95 94 94 93 92 93 88 79 35 328 308 299 295 294
186 129 21 91 128 46 216 141 128 88 152 211 204 270 223 181 171 161 153 147 139 130 126 123 120 117 113 107 102 100 96 96 92 88 83 74 55 33 4 343 328 318 312 309
145 90 115 150 216 177 142 180 118 128 197 187 175 232 216 187 169 164 157 150 145 139 134 128 123 119 115 113 109 103 96 88 87 81 72 59 39 17 3 349 341 335 328 324
175 110 141 187 3 319 338 190 181 192 190 186 19 240 117 184 164 161 156 152 149 143 137 133 131 130 129 124 117 108 100 95 84 72 62 44 27 9 352 343 340 338 337 336
183 151 109 127 229 162 222 181 208 116 95 188 174 217 45 152 158 164 161 164 157 152 145 143 140 139 134 127 115 107 99 88 79 61 42 24 7 354 344 341 337 334 330 328
149 106 195 197 204 140 196 190 196 199 199 179 230 162 172 179 176 179 177 170 169 162 157 155 151 144 133 126 122 112 99 82 60 36 15 3 355 348 341 336 331 326 322 320
160 195 196 208 168 174 207 185 182 202 221 199 232 214 186 189 186 185 176 172 171 171 167 161 154 147 143 136 125 106 83 57 29 4 352 345 343 338 332 326 323 320 319 317
167 173 172 180 168 184 195 198 195 208 217 239 236 222 200 189 181 174 178 177 176 174 170 164 160 155 147 140 128 107 62 18 359 350 343 341 336 332 328 325 323 320 319 319
158 137 144 211 128 122 290 214 198 215 215 216 214 218 163 171 188 189 184 182 177 174 171 168 165 159 153 144 126 87 19 354 346 338 334 330 327 325 323 321 318 317 316 315
168 137 98 124 133 208 254 170 196 205 207 210 229 183 179 187 197 191 191 183 179 177 172 169 166 160 157 153 136 20 345 332 328 327 325 323 322 320 318 316 315 315 314 314
213 167 147 166 210 316 238 209 181 182 229 206 215 171 173 167 163 197 193 193 187 179 173 170 170 170 164 156 163 330 322 319 319 319 320 319 318 317 316 314 315 314 312 312
172 204 182 165 197 213 246 181 166 126 254 192 195 168 161 153 181 189 188 184 176 173 173 171 169 167 176 274 314 313 307 308 310 312 314 316 316 315 315 315 314 313 310 308
186 184 206 193 210 271 178 147 157 171 244 175 187 176 164 176 197 174 166 168 173 170 169 168 171 193 245 285 295 300 304 307 309 310 311 311 311 311 311 310 310 309 308 305
176 176 193 164 199 246 149 125 189 155 137 172 168 165 160 162 145 160 164 162 165 167 168 176 194 237 269 282 293 302 305 306 307 308 310 311 311 310 309 307 307 306 306 306
192 188 173 206 216 111 174 151 199 172 156 161 172 179 175 154 152 157 158 161 163 170 180 197 224 255 274 288 300 304 304 305 307 310 312 313 313 312 311 309 308 307 305 305
243 225 134 141 199 146 183 184 164 164 154 151 163 167 171 159 160 159 160 161 168 179 202 233 250 265 279 291 299 304 306 306 310 312 314 314 314 314 313 311 309 307 307 307
202 152 150 287 299 114 214 192 169 167 161 155 158 164 167 164 161 162 165 174 188 207 232 254 270 282 290 299 305 306 305 307 310 310 310 310 311 311 309 306 305 305 307 307
189 165 189 207 185 182 201 187 180 174 168 167 170 166 167 169 167 173 179 189 207 225 244 259 272 288 296 300 301 302 303 306 307 307 307 307 307 306 305 303 302 301 302 304
Wind_Speed_850mb
7 18 28 31 22 7 20 14 14 5 3 6 13 21 21 19 19 24 22 24 20 26 25 27 34 38 45 53 57 57 59 58 59 60 59 60 60 57 55 50 44 40 38 42
13 27 17 21 14 15 19 19 10 6 4 5 3 22 22 17 13 18 20 20 20 23 24 29 35 42 47 48 55 59 59 59 60 60 60 61 60 59 56 55 52 49 46 45
29 5 28 16 16 20 5 18 12 8 9 4 7 14 9 3 1 5 8 14 12 13 11 14 22 31 39 51 61 57 57 58 59 57 57 58 61 57 54 52 49 47 47 47
8 8 24 25 15 15 11 7 15 22 14 7 5 7 7 4 5 7 5 5 6 6 4 4 7 14 18 27 47 56 52 51 54 55 57 55 54 52 49 48 43 42 38 37
13 23 22 17 15 13 7 12 14 8 9 5 5 8 6 3 10 12 9 7 9 12 15 16 15 13 10 8 16 32 38 43 44 45 48 49 50 47 45 44 43 43 43 42
7 4 4 6 11 2 27 20 14 7 3 5 4 7 8 8 7 10 8 8 11 15 21 22 23 21 20 18 14 15 22 30 32 31 32 37 38 39 41 41 41 43 43 43
5 5 3 9 22 10 7 29 7 6 8 8 4 6 13 6 6 3 3 10 18 24 27 30 32 31 30 28 26 23 19 18 17 17 19 23 26 26 26 28 30 32 33 35
19 11 19 11 9 20 29 15 12 13 10 7 2 13 7 2 5 8 11 19 27 35 40 44 47 47 47 47 44 41 38 35 30 25 19 13 8 5 5 9 12 16 19 22
19 8 4 2 4 9 14 12 7 14 2 4 8 9 16 4 9 15 24 29 31 37 43 48 49 50 49 47 45 43 40 38 34 29 24 18 13 8 4 6 10 14 19 23
15 11 4 3 3 8 8 21 7 1 11 9 9 10 10 15 22 22 29 35 31 37 42 45 45 42 41 37 34 29 27 26 24 20 17 14 11 9 9 11 14 17 21 25
12 7 4 3 12 21 8 10 4 7 5 9 9 10 6 25 31 34 38 36 36 36 42 43 41 37 33 29 26 24 23 21 18 15 15 13 11 12 14 16 18 21 24 26
4 11 10 15 2 4 3 9 17 11 12 1 2 5 2 16 38 46 40 33 34 39 42 41 38 34 31 26 23 19 19 16 16 15 13 11 12 13 15 18 21 24 27 31
16 7 10 4 5 2 12 9 10 6 5 14 11 8 4 19 36 37 39 33 40 41 40 38 35 31 27 23 19 16 16 15 14 13 12 13 14 17 21 24 28 33 38 44
26 4 13 24 25 16 19 19 18 22 10 12 17 11 18 24 32 40 41 41 38 40 41 38 34 28 23 20 19 17 15 14 13 14 16 18 20 24 30 35 41 47 51 55
13 20 12 6 4 15 15 27 31 33 42 24 35 28 38 42 43 55 46 42 45 45 41 36 31 27 23 21 18 15 12 11 12 15 17 21 26 31 35 40 43 46 51 54
5 10 17 7 7 5 8 25 39 45 41 30 14 26 16 55 40 40 47 53 49 47 45 38 32 28 25 20 14 9 6 9 15 19 23 27 32 37 42 47 52 55 57 59
17 13 9 14 9 10 8 40 40 34 34 39 31 29 17 31 45 56 54 55 52 50 46 38 33 28 22 15 9 5 6 11 15 22 28 34 39 45 51 56 59 61 64 67
20 14 3 8 7 14 15 4 36 42 31 36 25 19 41 55 80 54 50 59 56 53 46 40 33 26 18 11 5 5 11 18 24 30 37 43 48 53 57 58 60 64 68 71
8 17 9 12 19 9 11 12 19 26 35 32 42 20 26 32 38 31 51 54 56 51 45 38 30 22 17 10 1 9 18 26 33 38 43 49 55 58 60 63 65 67 73 76
2 12 14 8 16 26 19 13 27 14 28 31 41 33 36 48 23 16 57 52 50 46 41 35 26 18 8 4 11 19 28 35 40 45 48 51 55 59 64 68 72 75 78 83
12 5 24 15 9 13 9 12 29 22 15 35 65 60 61 26 18 43 59 54 49 45 39 30 20 11 9 14 20 28 34 40 45 47 50 53 56 63 67 74 76 81 85 88
24 22 14 7 16 31 25 17 21 5 13 28 40 46 47 34 41 69 65 58 50 42 34 25 17 13 17 22 25 29 36 43 47 51 54 58 62 66 70 74 77 77 79 83
9 8 14 16 9 3 37 4 25 22 34 31 48 55 61 50 62 69 64 53 42 32 24 17 13 16 21 24 30 34 39 46 51 55 58 60 64 66 69 75 80 85 87 87
4 5 5 6 5 0 26 13 22 27 33 39 43 55 57 61 67 64 56 46 36 27 19 17 18 18 22 27 29 37 44 48 52 57 58 62 66 68 69 72 76 82 86 88
1 17 12 4 3 4 20 28 33 38 40 43 48 55 57 61 59 53 45 36 28 21 19 20 22 24 25 30 34 38 45 50 56 62 67 71 73 76 78 78 80 83 84 84
16 12 10 8 36 15 31 52 43 43 47 46 51 54 49 49 51 45 37 29 22 21 21 22 23 25 30 34 35 40 48 56 64 72 76 79 83 85 87 89 91 86 87 86
Wind_Direction_850mb
151 185 190 179 193 149 158 139 159 131 71 224 233 267 262 264 271 255 256 265 262 261 259 252 244 239 235 235 234 232 232 232 234 237 238 242 246 250 253 256 260 259 257 256
159 204 175 117 116 126 145 150 145 102 69 232 275 267 264 266 250 271 277 270 275 271 267 252 244 238 235 234 235 234 234 234 236 240 242 245 250 254 258 262 263 264 263 260
181 154 147 141 142 134 135 172 167 147 139 81 296 268 240 106 208 298 292 271 259 256 258 250 237 235 237 236 232 231 233 235 237 238 242 244 248 254 257 259 263 265 269 267
151 139 162 149 167 173 172 158 134 135 157 210 348 259 266 146 134 106 78 74 84 95 76 114 171 208 233 239 230 228 231 233 236 237 240 246 251 255 262 267 272 278 281 277
157 166 156 172 178 177 147 128 119 124 110 168 189 262 239 158 167 140 110 92 98 105 106 107 109 117 125 162 206 223 228 229 233 235 237 242 250 255 260 264 272 277 280 280
94 102 159 133 74 56 142 109 73 72 87 238 154 246 234 185 171 153 121 108 110 117 112 106 101 100 103 106 128 172 200 212 218 224 227 234 242 249 254 260 265 269 272 274
115 120 95 139 96 136 187 155 135 179 190 233 27 211 267 157 125 114 138 114 121 123 116 110 108 105 102 101 102 109 123 153 175 197 211 219 226 233 241 249 258 266 272 276
161 193 182 169 173 174 182 194 167 179 189 164 101 220 243 110 344 182 135 133 126 121 119 115 110 105 101 98 96 96 98 100 103 107 111 117 133 168 236 261 272 278 279 282
169 156 62 52 142 174 176 200 98 105 59 170 204 250 261 119 139 151 142 138 132 125 122 117 114 111 106 103 99 96 95 94 94 93 92 93 88 79 35 328 308 299 295 294
186 129 21 91 128 46 216 141 128 88 152 211 204 270 223 181 171 161 153 147 139 130 126 123 120 117 113 107 102 100 96 96 92 88 83 74 55 33 4 343 328 318 312 309
145 90 115 150 216 177 142 180 118 128 197 187 175 232 216 187 169 164 157 150 145 139 134 128 123 119 115 113 109 103 96 88 87 81 72 59 39 17 3 349 341 335 328 324
175 110 141 187 3 319 338 190 181 192 190 186 19 240 117 184 164 161 156 152 149 143 137 133 131 130 129 124 117 108 100 95 84 72 62 44 27 9 352 343 340 338 337 336
183 151 109 127 229 162 222 181 208 116 95 188 174 217 45 152 158 164 161 164 157 152 145 143 140 139 134 127 115 107 99 88 79 61 42 24 7 354 344 341 337 334 330 328
149 106 195 197 204 140 196 190 196 199 199 179 230 162 172 179 176 179 177 170 169 162 157 155 151 144 133 126 122 112 99 82 60 36 15 3 355 348 341 336 331 326 322 320
160 195 196 208 168 174 207 185 182 202 221 199 232 214 186 189 186 185 176 172 171 171 167 161 154 147 143 136 125 106 83 57 29 4 352 345 343 338 332 326 323 320 319 317
167 173 172 180 168 184 195 198 195 208 217 239 236 222 200 189 181 174 178 177 176 174 170 164 160 155 147 140 128 107 62 18 359 350 343 341 336 332 328 325 323 320 319 319
158 137 144 211 128 122 290 214 198 215 215 216 214 218 163 171 188 189 184 182 177 174 171 168 165 159 153 144 126 87 19 354 346 338 334 330 327 325 323 321 318 317 316 315
168 137 98 124 133 208 254 170 196 205 207 210 229 183 179 187 197 191 191 183 179 177 172 169 166 160 157 153 136 20 345 332 328 327 325 323 322 320 318 316 315 315 314 314
213 167 147 166 210 316 238 209 181 182 229 206 215 171 173 167 163 197 193 193 187 179 173 170 170 170 164 156 163 330 322 319 319 319 320 319 318 317 316 314 315 314 312 312
172 204 182 165 197 213 246 181 166 126 254 192 195 168 161 153 181 189 188 184 176 173 173 171 169 167 176 274 314 313 307 308 310 312 314 316 316 315 315 315 314 313 310 308
186 184 206 193 210 271 178 147 157 171 244 175 187 176 164 176 197 174 166 168 173 170 169 168 171 193 245 285 295 300 304 307 309 310 311 311 311 311 311 310 310 309 308 305
176 176 193 164 199 246 149 125 189 155 137 172 168 165 160 162 145 160 164 162 165 167 168 176 194 237 269 282 293 302 305 306 307 308 310 311 311 310 309 307 307 306 306 306
192 188 173 206 216 111 174 151 199 172 156 161 172 179 175 154 152 157 158 161 163 170 180 197 224 255 274 288 300 304 304 305 307 310 312 313 313 312 311 309 308 307 305 305
243 225 134 141 199 146 183 184 164 164 154 151 163 167 171 159 160 159 160 161 168 179 202 233 250 265 279 291 299 304 306 306 310 312 314 314 314 314 313 311 309 307 307 307
202 152 150 287 299 114 214 192 169 167 161 155 158 164 167 164 161 162 165 174 188 207 232 254 270 282 290 299 305 306 305 307 310 310 310 310 311 311 309 306 305 305 307 307
189 165 189 207 185 182 201 187 180 174 168 167 170 166 167 169 167 173 179 189 207 225 244 259 272 288 296 300 301 302 303 306 307 307 307 307 307 306 305 303 302 301 302 304